EW2077 Weather Reports


Display with metric or nautical units.
time (UTC)temp
F
wind
direction
speed
MPH
gust
MPH
rain 1hr
in
rain 24hr
in
rain mn
in
humidity
%
barometer
mb
20260504081535 40 199 0.0 0.0 0.00 0.00 0.00 52 1031.9
20260504050003 47 199 0.0 0.0 0.00 0.00 0.00 46 1033.2
20260504044504 48 199 0.0 0.0 0.00 0.00 0.00 44 1033.3
20260504043003 49 199 0.0 0.0 0.00 0.00 0.00 42 1033.5
20260504041503 51 199 0.0 0.0 0.00 0.00 0.00 42 1033.6
20260504040002 53 199 0.0 0.0 0.00 0.00 0.00 36 1033.6
20260504034501 53 199 0.0 1.0 0.00 0.00 0.00 34 1033.7
20260504033116 53 199 0.0 1.0 0.00 0.00 0.00 34 1033.8
20260504031605 53 198 0.0 0.0 0.00 0.00 0.00 34 1033.9
20260504030059 54 198 0.0 0.0 0.00 0.00 0.00 35 1034.0
20260504024602 53 196 0.0 1.0 0.00 0.00 0.00 35 1033.8
20260504023059 53 196 0.0 0.0 0.00 0.00 0.00 37 1034.0
20260504021558 54 196 0.0 0.0 0.00 0.00 0.00 36 1033.7
20260504020057 56 196 0.0 0.0 0.00 0.00 0.00 34 1033.7
20260504014558 57 196 0.0 0.0 0.00 0.00 0.00 33 1033.7
20260504013107 57 196 0.0 0.0 0.00 0.00 0.00 31 1033.4
20260504011555 57 196 0.0 0.0 0.00 0.00 0.00 31 1033.3
20260504010056 57 196 0.0 0.0 0.00 0.00 0.00 30 1033.1
20260504004611 58 196 0.0 2.0 0.00 0.00 0.00 30 1033.1
20260504003100 59 196 0.0 3.0 0.00 0.00 0.00 29 1033.1
20260504001558 60 182 1.0 4.0 0.00 0.00 0.00 27 1033.0
20260504000054 60 156 0.0 3.0 0.00 0.00 0.00 23 1032.7
20260503234553 61 157 0.0 8.0 0.00 0.00 0.00 24 1032.8
20260503233054 62 190 0.0 2.0 0.00 0.00 0.00 20 1032.7
20260503231555 62 191 0.0 0.0 0.00 0.00 0.00 21 1032.6
20260503230052 62 119 0.0 6.0 0.00 0.00 0.00 20 1032.7
20260503224549 62 350 0.0 0.0 0.00 0.00 0.00 22 1032.8
20260503223047 61 335 0.0 4.0 0.00 0.00 0.00 21 1033.0
20260503221552 61 140 0.0 0.0 0.00 0.00 0.00 24 1033.2
20260503220045 60 144 0.0 0.0 0.00 0.00 0.00 24 1033.6
20260503214543 61 144 3.0 7.0 0.00 0.00 0.00 23 1033.9
20260503213044 62 159 0.0 4.0 0.00 0.00 0.00 18 1033.9
20260503211542 63 5 1.0 7.0 0.00 0.00 0.00 18 1034.1
20260503210038 63 166 1.0 5.0 0.00 0.00 0.00 18 1034.3
20260503204537 63 203 1.0 6.0 0.00 0.00 0.00 18 1034.6
20260503203037 64 39 0.0 6.0 0.00 0.00 0.00 19 1034.9
20260503201533 64 66 0.0 4.0 0.00 0.00 0.00 18 1034.8
20260503200031 64 170 0.0 3.0 0.00 0.00 0.00 18 1035.1
20260503194529 62 189 0.0 7.0 0.00 0.00 0.00 18 1035.2
20260503193036 62 140 0.0 6.0 0.00 0.00 0.00 20 1035.5
20260503191525 63 268 0.0 6.0 0.00 0.00 0.00 19 1035.7
20260503190030 62 351 0.0 5.0 0.00 0.00 0.00 21 1036.0
20260503184521 62 139 1.0 5.0 0.00 0.00 0.00 20 1036.2
20260503183018 61 200 0.0 3.0 0.00 0.00 0.00 21 1036.6
20260503181516 61 181 1.0 6.0 0.00 0.00 0.00 23 1037.0
20260503180013 60 346 0.0 3.0 0.00 0.00 0.00 21 1037.4
20260503174507 59 355 0.0 1.0 0.00 0.00 0.00 22 1037.7
20260503173015 59 11 0.0 7.0 0.00 0.00 0.00 23 1037.9
20260503171502 59 321 0.0 2.0 0.00 0.00 0.00 25 1038.1